TITAN 3C TRANSTAGE DEB, 1959

Orbit data source: Space-Track

TITAN 3C TRANSTAGE DEB, 1959 is space debris in LEO originally from a launch on Fri, 15 Oct 1965 UTC launched from the Air Force Eastern Test Range (AFETR). Debris objects in space refer to the collection of defunct objects orbiting the Earth. Examples of debris include non-operational satellites, rocket bodies, and fragments generated from explosions, collisions, or faulty payload assembly.

Loading next visibility...
Identifier
1959, 1965-082GU
Orbit
LEO
Country
Flag of USUS
Related business
Manufacturer
Unknown
Mission
Spacecraft
Bus & Motor
Unknown
Mass
Unknown
Launch date (UTC)
1965-10-15 (61 years ago)
Launch vehicle
Unknown
Launch site
Air Force Eastern Test Range (AFETR)
Object type
Payload
Rocket body
Debris
Shape & HBR
Unknown shape, 0.2 m
Radar Cross Section
Medium (>0.1 m² and <1 m²)

Expand to show TLE details & history
Last TLE update: 4 days ago

TLE from 4 days ago
0 TITAN 3C TRANSTAGE DEB
1 01959U 65082GU  26160.40992458  .00000423  00000-0  76543-4 0  9999
2 01959  31.7906  56.8349 0062177 168.2135 191.9971 14.59038983212626
Epoch: 2026-06-09T09:50Z
TLE epoch observation values (Epoch: 2026-06-09T09:50:17.483Z)
Latitude
-0.00006°
Longitude
11.47913°
Altitude
737.924 km
Speed
7.466 km/s
True Right ascension
03h 47m 20s
True Declination
0° 00' 00"
Sunlit
Object was in daylight at epoch
Visualization orbit readout
Latitude
Unknown
Longitude
Unknown
Altitude
Unknown
Speed
Unknown
Apparent Right ascension
Unknown
Apparent Declination
Unknown
Sunlit
N/A
Visualization observer readout
Local Sidereal Time
19:25:49
Azimuth
Unknown
Elevation
Unknown
Doppler factor
Unknown
Orbital elements
Apogee altitude
743.928 km
Perigee altitude
655.909 km
Semi-major axis
7,078.055 km
Eccentricity
0.00622
Inclination
31.7906°
RAAN
56.8349°
Arg. of periapsis
168.2135°
True anomaly
191.85012°
Mean anomaly
191.9971°
Eccentric anomaly
191.9235°
Mean motion
3.64479 °/min
Orbital period
98.77 mins
BSTAR
0.000076543
Loading maneuver chart data...
Computing Atmospheric mass density...

Documentation

Showing up to 5 results
|